Weather History for Keahole Point, HI

Change the Weather History Date:

Sunday, June 17, 2012

  Actual Average Record
Temperature  
Mean Temperature 78 °F -  
Max Temperature 82 °F 81 °F 91 °F (1986)
Min Temperature 75 °F 72 °F 68 °F (1991)
Cooling Degree Days 14    
Growing Degree Days 28 (Base 50)    
Moisture  
Dew Point 64 °F    
Average Humidity 59    
Maximum Humidity 71    
Minimum Humidity 47    
Precipitation  
Precipitation 0.00 in - - ()
Sea Level Pressure  
Sea Level Pressure 30.07 in    
Wind  
Wind Speed 5 mph (SSE)    
Max Wind Speed 16 mph    
Max Gust Speed -    
Visibility 10 miles    
Events      
Averages and records for this station are not official NWS values.
T = Trace of Precipitation, MM = Missing Value Source: NWS Daily Summary

Daily Weather History Graph

Daily Weather History Graph

Search for Another Location

Airport:

Trip Planner

Search our weather history database for the weather conditions in past years. The results will help you decide how hot, cold, wet, or windy it might be!

Date:

Astronomy

Jun. 17, 2012 Rise Set
Actual Time 5:45 AM HST 7:05 PM HST
Civil Twilight 5:21 AM HST 7:29 PM HST
Nautical Twilight 4:51 AM HST 7:58 PM HST
Astronomical Twilight 4:21 AM HST 8:28 PM HST
Moon 4:17 AM HST (6/17) 5:47 PM HST (6/17)
Length of Visible Light 14h 08m
Length of Day
13h 19m
Waning Crescent, 3% of the Moon is Illuminated
Jun 17
Waning Crescent
Jun 19
New
Jun 26
First Quarter
Jul 3
Full
Jul 10
Last Quarter

Hourly Weather History & Observations

Time (HST) Temp. Heat Index Dew Point Humidity Pressure Visibility Wind Dir Wind Speed Gust Speed Precip Events Conditions
12:53 AM 78.1 °F - 63.0 °F 60% 30.07 in 10.0 mi Calm Calm - N/A   Partly Cloudy
1:53 AM 78.1 °F - 63.0 °F 60% 30.05 in 10.0 mi West 5.8 mph - N/A   Clear
2:53 AM 77.0 °F - 64.0 °F 64% 30.04 in 10.0 mi SSE 5.8 mph - N/A   Clear
3:53 AM 77.0 °F - 66.0 °F 69% 30.05 in 10.0 mi ESE 4.6 mph - N/A   Clear
4:53 AM 75.9 °F - 66.0 °F 71% 30.06 in 10.0 mi SE 6.9 mph - N/A   Mostly Cloudy
5:53 AM 75.9 °F - 64.9 °F 69% 30.08 in 10.0 mi Calm Calm - N/A   Scattered Clouds
6:53 AM 77.0 °F - 64.9 °F 66% 30.09 in 10.0 mi South 5.8 mph - N/A   Mostly Cloudy
7:53 AM 79.0 °F - 66.9 °F 66% 30.10 in 10.0 mi South 6.9 mph - N/A   Clear
8:53 AM 82.0 °F 84.1 °F 66.0 °F 58% 30.11 in 10.0 mi South 6.9 mph - N/A   Clear
9:53 AM 81.0 °F 82.7 °F 64.9 °F 58% 30.10 in 10.0 mi South 5.8 mph - N/A   Mostly Cloudy
10:53 AM 81.0 °F 83.0 °F 66.0 °F 60% 30.10 in 10.0 mi SSW 5.8 mph - N/A   Overcast
11:53 AM 82.9 °F 85.8 °F 68.0 °F 60% 30.09 in 10.0 mi SSW 9.2 mph - N/A   Mostly Cloudy
12:53 PM 82.0 °F 83.8 °F 64.9 °F 56% 30.07 in 10.0 mi SSE 6.9 mph - N/A   Mostly Cloudy
1:53 PM 82.9 °F 84.4 °F 64.0 °F 53% 30.06 in 10.0 mi South 11.5 mph - N/A   Mostly Cloudy
2:53 PM 82.9 °F 85.8 °F 68.0 °F 60% 30.05 in 10.0 mi South 13.8 mph - N/A   Mostly Cloudy
3:53 PM 82.0 °F 83.4 °F 64.0 °F 54% 30.04 in 10.0 mi SSE 8.1 mph - N/A   Clear
4:53 PM 81.0 °F 82.7 °F 64.9 °F 58% 30.03 in 10.0 mi Variable 5.8 mph - N/A   Clear
5:53 PM 80.1 °F 81.7 °F 64.0 °F 58% 30.04 in 10.0 mi SE 3.5 mph - N/A   Clear
6:53 PM 79.0 °F - 64.0 °F 60% 30.05 in 10.0 mi Calm Calm - N/A   Clear
7:53 PM 79.0 °F - 57.9 °F 48% 30.06 in 10.0 mi NE 15.0 mph - N/A   Clear
8:53 PM 79.0 °F - 61.0 °F 54% 30.07 in 10.0 mi North 8.1 mph - N/A   Scattered Clouds
9:53 PM 77.0 °F - 62.1 °F 60% 30.07 in 10.0 mi ENE 5.8 mph - N/A   Clear
10:53 PM 77.0 °F - 55.0 °F 47% 30.06 in 10.0 mi NE 16.1 mph - N/A   Clear
11:53 PM 77.0 °F - 57.0 °F 50% 30.05 in 10.0 mi East 5.8 mph - N/A   Clear